time, Switch, Flow(0), Analog(2)
yyyy/mm/dd HH:MM:SS.fff, True=FILTERED|False=TOTAL, L/min, V
2023/07/06 03:00:01.658, True, 4.715, 0.151141
2023/07/06 03:00:02.161, True, 4.641, 0.154498
2023/07/06 03:00:02.666, True, 4.645, 0.153353
2023/07/06 03:00:03.162, True, 4.379, 0.154116
2023/07/06 03:00:03.665, True, 3.979, 0.154955
2023/07/06 03:00:04.170, True, 2.324, 0.154803
2023/07/06 03:00:04.666, True, 1.347, 0.154879
2023/07/06 03:00:05.170, True, 0.663, 0.151904
2023/07/06 03:00:05.674, True, 0.995, 0.152361
2023/07/06 03:00:06.170, True, 0.674, 0.153735
2023/07/06 03:00:06.674, True, 0.664, 0.155032
2023/07/06 03:00:07.178, True, 0.663, 0.152361
2023/07/06 03:00:07.674, True, 0.674, 0.152972
2023/07/06 03:00:08.178, True, 0.995, 0.151369
2023/07/06 03:00:08.682, True, 0.663, 0.154192
2023/07/06 03:00:09.178, True, 0.674, 0.153048
2023/07/06 03:00:09.682, True, 0.663, 0.153658
2023/07/06 03:00:10.186, True, 0.663, 0.153277
2023/07/06 03:00:10.690, True, 0.995, 0.152285
2023/07/06 03:00:11.186, True, 0.674, 0.154650
2023/07/06 03:00:11.690, True, 0.664, 0.154345
2023/07/06 03:00:12.194, True, 0.662, 0.154955
2023/07/06 03:00:12.690, True, 0.674, 0.153201
2023/07/06 03:00:13.194, True, 0.663, 0.151675
2023/07/06 03:00:13.690, True, 0.674, 0.152132
2023/07/06 03:00:14.194, True, 0.663, 0.155337
2023/07/06 03:00:14.698, True, 0.995, 0.152056
2023/07/06 03:00:15.194, True, 0.675, 0.153201
2023/07/06 03:00:15.698, True, 0.662, 0.153124
2023/07/06 03:00:16.202, True, 0.663, 0.156481
2023/07/06 03:00:16.698, True, 0.674, 0.153887
2023/07/06 03:00:17.202, True, 0.663, 0.152285
2023/07/06 03:00:17.706, True, 0.664, 0.152438
2023/07/06 03:00:18.210, True, 0.663, 0.154040
2023/07/06 03:00:18.705, True, 1.011, 0.154345
2023/07/06 03:00:19.210, True, 0.663, 0.155261
2023/07/06 03:00:19.714, True, 0.663, 0.154269
2023/07/06 03:00:20.210, True, 0.674, 0.154116
2023/07/06 03:00:20.714, True, 0.663, 0.152972
2023/07/06 03:00:21.218, True, 0.663, 0.151827
2023/07/06 03:00:21.714, True, 0.674, 0.154421
2023/07/06 03:00:22.218, True, 0.665, 0.155184
2023/07/06 03:00:22.722, True, 0.662, 0.154421
2023/07/06 03:00:23.218, True, 0.674, 0.152361
2023/07/06 03:00:23.722, True, 0.995, 0.153964
2023/07/06 03:00:24.226, True, 0.663, 0.152056
2023/07/06 03:00:24.721, True, 0.337, 0.154192
2023/07/06 03:00:25.226, True, 0.995, 0.154498
2023/07/06 03:00:25.729, True, 0.663, 0.152209
2023/07/06 03:00:26.234, True, 0.663, 0.153201
2023/07/06 03:00:26.730, True, 0.674, 0.152438
2023/07/06 03:00:27.234, True, 0.663, 0.151522
2023/07/06 03:00:27.738, True, 0.663, 0.154421
2023/07/06 03:00:28.234, True, 0.674, 0.153964
2023/07/06 03:00:28.738, True, 0.663, 0.152667
2023/07/06 03:00:29.241, True, 0.663, 0.154650
2023/07/06 03:00:29.738, True, 0.674, 0.152819
2023/07/06 03:00:30.242, True, 0.663, 0.153277
2023/07/06 03:00:30.745, True, 0.995, 0.153353
2023/07/06 03:00:31.242, True, 0.674, 0.152667
2023/07/06 03:00:31.746, True, 0.663, 0.153506
2023/07/06 03:00:32.250, True, 0.663, 0.152132
2023/07/06 03:00:32.746, True, 0.674, 0.155184
2023/07/06 03:00:33.250, True, 0.665, 0.153964
2023/07/06 03:00:33.754, True, 0.662, 0.153277
2023/07/06 03:00:34.250, True, 0.674, 0.155642
2023/07/06 03:00:34.754, True, 0.664, 0.154192
2023/07/06 03:00:35.258, True, 0.663, 0.153353
2023/07/06 03:00:35.754, True, 0.674, 0.154040
2023/07/06 03:00:36.258, True, 0.663, 0.154421
2023/07/06 03:00:36.762, True, 0.663, 0.153582
2023/07/06 03:00:37.258, True, 0.674, 0.155489
2023/07/06 03:00:37.762, True, 0.995, 0.152819
2023/07/06 03:00:38.265, True, 0.663, 0.154726
2023/07/06 03:00:38.762, True, 0.674, 0.151446
2023/07/06 03:00:39.266, True, 0.663, 0.152819
2023/07/06 03:00:39.770, True, 0.663, 0.155947
2023/07/06 03:00:40.274, True, 0.663, 0.153964
2023/07/06 03:00:40.770, True, 0.674, 0.153735
2023/07/06 03:00:41.274, True, 0.663, 0.152895
2023/07/06 03:00:41.777, True, 0.663, 0.154803
2023/07/06 03:00:42.274, True, 0.674, 0.152056
2023/07/06 03:00:42.778, True, 0.663, 0.154955
2023/07/06 03:00:43.282, True, 0.663, 0.153964
2023/07/06 03:00:43.778, True, 0.674, 0.153506
2023/07/06 03:00:44.282, True, 0.663, 0.154650
2023/07/06 03:00:44.778, True, 0.674, 0.153353
2023/07/06 03:00:45.282, True, 0.663, 0.152743
2023/07/06 03:00:45.786, True, 0.663, 0.153964
2023/07/06 03:00:46.290, True, 0.665, 0.154192
2023/07/06 03:00:46.786, True, 0.672, 0.154574
2023/07/06 03:00:47.290, True, 0.664, 0.153582
2023/07/06 03:00:47.794, True, 0.993, 0.152361
2023/07/06 03:00:48.290, True, 0.675, 0.152972
2023/07/06 03:00:48.794, True, 0.662, 0.152132
2023/07/06 03:00:49.298, True, 0.664, 0.153735
2023/07/06 03:00:49.794, True, 0.673, 0.153429
2023/07/06 03:00:50.298, True, 0.663, 0.152743
2023/07/06 03:00:50.801, True, 0.663, 0.153964
2023/07/06 03:00:51.306, True, 0.663, 0.153429
2023/07/06 03:00:51.802, True, 0.674, 0.153201
2023/07/06 03:00:52.306, True, 0.664, 0.153811
2023/07/06 03:00:52.809, True, 0.662, 0.153201
2023/07/06 03:00:53.306, True, 0.674, 0.151751
2023/07/06 03:00:53.810, True, 0.996, 0.152895
2023/07/06 03:00:54.313, True, 0.662, 0.152743
2023/07/06 03:00:54.810, True, 0.674, 0.153429
2023/07/06 03:00:55.314, True, 0.663, 0.153811
2023/07/06 03:00:55.818, True, 0.664, 0.155108
2023/07/06 03:00:56.314, True, 0.673, 0.153429
2023/07/06 03:00:56.818, True, 0.664, 0.152285
2023/07/06 03:00:57.322, True, 0.663, 0.150683
2023/07/06 03:00:57.818, True, 0.674, 0.151980
2023/07/06 03:00:58.322, True, 0.662, 0.152590
2023/07/06 03:00:58.826, True, 0.664, 0.154955
2023/07/06 03:00:59.322, True, 0.674, 0.153048
2023/07/06 03:00:59.826, True, 0.993, 0.153735
2023/07/06 03:01:00.330, True, 0.665, 0.152819
2023/07/06 03:01:00.826, True, 0.674, 0.155566
2023/07/06 03:01:01.330, True, 0.332, 0.154498
2023/07/06 03:01:01.834, True, 0.662, 0.153658
2023/07/06 03:01:02.330, True, 0.675, 0.153582
2023/07/06 03:01:02.834, True, 0.995, 0.151369
2023/07/06 03:01:03.338, True, 0.662, 0.153658
2023/07/06 03:01:03.834, True, 0.674, 0.154650
2023/07/06 03:01:04.338, True, 0.663, 0.155413
2023/07/06 03:01:04.842, True, 0.663, 0.152590
2023/07/06 03:01:05.338, True, 0.674, 0.152667
2023/07/06 03:01:05.841, True, 0.664, 0.151980
2023/07/06 03:01:06.345, True, 0.331, 0.152285
2023/07/06 03:01:06.842, True, 1.011, 0.152361
2023/07/06 03:01:07.346, True, 0.663, 0.153048
2023/07/06 03:01:07.850, True, 0.663, 0.151446
2023/07/06 03:01:08.345, True, 0.674, 0.153124
2023/07/06 03:01:08.850, True, 0.663, 0.154040
2023/07/06 03:01:09.346, True, 0.674, 0.152972
2023/07/06 03:01:09.849, True, 0.332, 0.153887
2023/07/06 03:01:10.354, True, 0.997, 0.152743
2023/07/06 03:01:10.850, True, 0.673, 0.152972
2023/07/06 03:01:11.354, True, 0.663, 0.154879
2023/07/06 03:01:11.858, True, 0.663, 0.151980
2023/07/06 03:01:12.354, True, 0.674, 0.154421
2023/07/06 03:01:12.858, True, 0.664, 0.154726
2023/07/06 03:01:13.362, True, 0.663, 0.153735
2023/07/06 03:01:13.858, True, 0.674, 0.153506
2023/07/06 03:01:14.362, True, 0.663, 0.154803
2023/07/06 03:01:14.865, True, 0.663, 0.153506
2023/07/06 03:01:15.362, True, 0.674, 0.156558
2023/07/06 03:01:15.866, True, 0.663, 0.153429
2023/07/06 03:01:16.370, True, 0.663, 0.153201
2023/07/06 03:01:16.866, True, 0.674, 0.154116
2023/07/06 03:01:17.370, True, 0.663, 0.154803
2023/07/06 03:01:17.874, True, 0.663, 0.155795
2023/07/06 03:01:18.370, True, 0.674, 0.154116
2023/07/06 03:01:18.874, True, 0.331, 0.153735
2023/07/06 03:01:19.377, True, 0.663, 0.154879
2023/07/06 03:01:19.874, True, 0.674, 0.153735
2023/07/06 03:01:20.378, True, 0.663, 0.152514
2023/07/06 03:01:20.882, True, 0.663, 0.154574
2023/07/06 03:01:21.377, True, 1.011, 0.154574
2023/07/06 03:01:21.882, True, 0.663, 0.153124
2023/07/06 03:01:22.386, True, 0.663, 0.152743
2023/07/06 03:01:22.882, True, 0.674, 0.153658
2023/07/06 03:01:23.386, True, 0.663, 0.155337
2023/07/06 03:01:23.890, True, 0.663, 0.156100
2023/07/06 03:01:24.386, True, 0.674, 0.156481
2023/07/06 03:01:24.890, True, 0.663, 0.157931
2023/07/06 03:01:25.394, True, 0.663, 0.154650
2023/07/06 03:01:25.890, True, 0.674, 0.155413
2023/07/06 03:01:26.393, True, 0.664, 0.157549
2023/07/06 03:01:26.898, True, 0.662, 0.157015
2023/07/06 03:01:27.394, True, 0.675, 0.155032
2023/07/06 03:01:27.898, True, 0.662, 0.154116
2023/07/06 03:01:28.401, True, 0.663, 0.157473
2023/07/06 03:01:28.898, True, 1.011, 0.159762
2023/07/06 03:01:29.402, True, 0.663, 0.157168
2023/07/06 03:01:29.905, True, 0.663, 0.157321
2023/07/06 03:01:30.402, True, 0.674, 0.154269
2023/07/06 03:01:30.905, True, 0.663, 0.157092
2023/07/06 03:01:31.410, True, 0.663, 0.156710
2023/07/06 03:01:31.905, True, 0.674, 0.157931
2023/07/06 03:01:32.410, True, 0.663, 0.158389
2023/07/06 03:01:32.913, True, 0.663, 0.156634
2023/07/06 03:01:33.410, True, 0.674, 0.158694
2023/07/06 03:01:33.914, True, 0.663, 0.157931
2023/07/06 03:01:34.410, True, 0.674, 0.156252
2023/07/06 03:01:34.914, True, 0.663, 0.156786
2023/07/06 03:01:35.418, True, 0.663, 0.157702
2023/07/06 03:01:35.922, True, 0.663, 0.158160
2023/07/06 03:01:36.418, True, 0.674, 0.160601
2023/07/06 03:01:36.922, True, 0.663, 0.157855
2023/07/06 03:01:37.426, True, 0.663, 0.157092
2023/07/06 03:01:37.922, True, 0.674, 0.159152
2023/07/06 03:01:38.425, True, 0.663, 0.159304
2023/07/06 03:01:38.922, True, 0.674, 0.158312
2023/07/06 03:01:39.425, True, 0.664, 0.156252
2023/07/06 03:01:39.930, True, 0.663, 0.158846
2023/07/06 03:01:40.434, True, 0.996, 0.159609
2023/07/06 03:01:40.930, True, 0.674, 0.160601
2023/07/06 03:01:41.434, True, 0.663, 0.158846
2023/07/06 03:01:41.938, True, 0.664, 0.157626
2023/07/06 03:01:42.434, True, 0.673, 0.159380
2023/07/06 03:01:42.937, True, 0.663, 0.156710
2023/07/06 03:01:43.442, True, 0.664, 0.160296
2023/07/06 03:01:43.938, True, 0.673, 0.158389
2023/07/06 03:01:44.441, True, 0.663, 0.158465
2023/07/06 03:01:44.946, True, 0.663, 0.160067
2023/07/06 03:01:45.442, True, 0.674, 0.158160
2023/07/06 03:01:45.945, True, 0.663, 0.158541
2023/07/06 03:01:46.450, True, 0.664, 0.160525
2023/07/06 03:01:46.946, True, 0.673, 0.158999
2023/07/06 03:01:47.449, True, 0.664, 0.160754
2023/07/06 03:01:47.954, True, 0.662, 0.161288
2023/07/06 03:01:48.450, True, 0.675, 0.159228
2023/07/06 03:01:48.954, True, 0.662, 0.160906
2023/07/06 03:01:49.458, True, 0.663, 0.161135
2023/07/06 03:01:49.954, True, 0.675, 0.161212
2023/07/06 03:01:50.457, True, 0.663, 0.159304
2023/07/06 03:01:50.962, True, 0.662, 0.160601
2023/07/06 03:01:51.458, True, 0.674, 0.161593
2023/07/06 03:01:51.961, True, 0.663, 0.160906
2023/07/06 03:01:52.466, True, 0.663, 0.159838
2023/07/06 03:01:52.970, True, 0.664, 0.161135
2023/07/06 03:01:53.466, True, 0.673, 0.160143
2023/07/06 03:01:53.970, True, 0.995, 0.161746
2023/07/06 03:01:54.474, True, 0.663, 0.161212
2023/07/06 03:01:54.970, True, 0.337, 0.161212
2023/07/06 03:01:55.473, True, 0.994, 0.159991
2023/07/06 03:01:55.970, True, 0.674, 0.162890
2023/07/06 03:01:56.474, True, 0.663, 0.160983
2023/07/06 03:01:56.978, True, 0.664, 0.160678
2023/07/06 03:01:57.482, True, 0.663, 0.160143
2023/07/06 03:01:57.978, True, 0.674, 0.159762
2023/07/06 03:01:58.482, True, 0.663, 0.160754
2023/07/06 03:01:58.978, True, 0.674, 0.161593
2023/07/06 03:01:59.482, True, 0.663, 0.160830
2023/07/06 03:01:59.986, True, 0.663, 0.160601
2023/07/06 03:02:00.482, True, 0.674, 0.158389
2023/07/06 03:02:00.986, True, 0.664, 0.162432
2023/07/06 03:02:01.489, True, 0.662, 0.162509
2023/07/06 03:02:01.986, True, 0.674, 0.161746
2023/07/06 03:02:02.490, True, 0.663, 0.158770
2023/07/06 03:02:02.994, True, 0.664, 0.160372
2023/07/06 03:02:03.498, True, 0.663, 0.161975
2023/07/06 03:02:03.994, True, 0.673, 0.161517
2023/07/06 03:02:04.498, True, 0.663, 0.160525
2023/07/06 03:02:05.002, True, 0.663, 0.162890
2023/07/06 03:02:05.498, True, 0.674, 0.163195
2023/07/06 03:02:06.002, True, 0.663, 0.162127
2023/07/06 03:02:06.506, True, 0.663, 0.160067
2023/07/06 03:02:07.002, True, 0.674, 0.159609
2023/07/06 03:02:07.506, True, 0.663, 0.160220
2023/07/06 03:02:08.010, True, 0.664, 0.159838
2023/07/06 03:02:08.505, True, 0.673, 0.161440
2023/07/06 03:02:09.010, True, 0.663, 0.161898
2023/07/06 03:02:09.514, True, 0.663, 0.162127
2023/07/06 03:02:10.010, True, 0.674, 0.159838
2023/07/06 03:02:10.513, True, 0.663, 0.161212
2023/07/06 03:02:11.018, True, 0.663, 0.160372
2023/07/06 03:02:11.522, True, 0.663, 0.160678
2023/07/06 03:02:12.018, True, 0.674, 0.159915
2023/07/06 03:02:12.522, True, 0.663, 0.160220
2023/07/06 03:02:13.018, True, 0.674, 0.162356
2023/07/06 03:02:13.522, True, 0.663, 0.161898
2023/07/06 03:02:14.026, True, 0.995, 0.161059
2023/07/06 03:02:14.522, True, 0.337, 0.160983
2023/07/06 03:02:15.025, True, 0.663, 0.162432
2023/07/06 03:02:15.530, True, 0.995, 0.161212
2023/07/06 03:02:16.026, True, 0.674, 0.162432
2023/07/06 03:02:16.530, True, 0.663, 0.162280
2023/07/06 03:02:17.033, True, 0.664, 0.161746
2023/07/06 03:02:17.529, True, 0.674, 0.159609
2023/07/06 03:02:18.034, True, 0.663, 0.162280
2023/07/06 03:02:18.537, True, 0.664, 0.161669
2023/07/06 03:02:19.033, True, 0.673, 0.160143
2023/07/06 03:02:19.537, True, 0.664, 0.161746
2023/07/06 03:02:20.041, True, 0.663, 0.159915
2023/07/06 03:02:20.537, True, 0.673, 0.158999
2023/07/06 03:02:21.042, True, 0.663, 0.163577
2023/07/06 03:02:21.545, True, 0.663, 0.160296
2023/07/06 03:02:22.041, True, 0.337, 0.161059
2023/07/06 03:02:22.545, True, 0.663, 0.160143
2023/07/06 03:02:23.050, True, 0.663, 0.161975
2023/07/06 03:02:23.545, True, 0.674, 0.162509
2023/07/06 03:02:24.050, True, 0.663, 0.160449
2023/07/06 03:02:24.554, True, 0.663, 0.162356
2023/07/06 03:02:25.050, True, 0.674, 0.162585
2023/07/06 03:02:25.553, True, 0.995, 0.160983
2023/07/06 03:02:26.058, True, 0.664, 0.162890
2023/07/06 03:02:26.562, True, 0.664, 0.161440
2023/07/06 03:02:27.058, True, 0.674, 0.160449
2023/07/06 03:02:27.562, True, 0.662, 0.160830
2023/07/06 03:02:28.066, True, 0.663, 0.162661
2023/07/06 03:02:28.562, True, 0.674, 0.162356
2023/07/06 03:02:29.066, True, 0.663, 0.159991
2023/07/06 03:02:29.562, True, 0.337, 0.162356
2023/07/06 03:02:30.066, True, 0.663, 0.164263
2023/07/06 03:02:30.570, True, 0.663, 0.161440
2023/07/06 03:02:31.066, True, 1.011, 0.160220
2023/07/06 03:02:31.570, True, 0.663, 0.159609
2023/07/06 03:02:32.074, True, 0.664, 0.161975
2023/07/06 03:02:32.570, True, 0.674, 0.161059
2023/07/06 03:02:33.074, True, 0.663, 0.161059
2023/07/06 03:02:33.578, True, 0.664, 0.162280
2023/07/06 03:02:34.082, True, 0.663, 0.162890
2023/07/06 03:02:34.578, True, 0.674, 0.161212
2023/07/06 03:02:35.082, True, 0.663, 0.162509
2023/07/06 03:02:35.586, True, 0.662, 0.159686
2023/07/06 03:02:36.082, True, 0.674, 0.162661
2023/07/06 03:02:36.586, True, 0.662, 0.162356
2023/07/06 03:02:37.090, True, 0.663, 0.160830
2023/07/06 03:02:37.586, True, 0.674, 0.161135
2023/07/06 03:02:38.090, True, 0.664, 0.161364
2023/07/06 03:02:38.594, True, 0.662, 0.160754
2023/07/06 03:02:39.090, True, 0.674, 0.163729
2023/07/06 03:02:39.594, True, 0.664, 0.161212
2023/07/06 03:02:40.098, True, 0.663, 0.161059
2023/07/06 03:02:40.594, True, 0.674, 0.164111
2023/07/06 03:02:41.098, True, 0.664, 0.163729
2023/07/06 03:02:41.602, True, 0.663, 0.162356
2023/07/06 03:02:42.106, True, 0.663, 0.162661
2023/07/06 03:02:42.601, True, 0.337, 0.163348
2023/07/06 03:02:43.106, True, 0.664, 0.163729
2023/07/06 03:02:43.610, True, 0.663, 0.164950
2023/07/06 03:02:44.106, True, 0.675, 0.161440
2023/07/06 03:02:44.609, True, 0.662, 0.162280
2023/07/06 03:02:45.113, True, 0.663, 0.160067
2023/07/06 03:02:45.610, True, 0.674, 0.161135
2023/07/06 03:02:46.114, True, 0.663, 0.161517
2023/07/06 03:02:46.618, True, 0.663, 0.163195
2023/07/06 03:02:47.114, True, 0.674, 0.163424
2023/07/06 03:02:47.618, True, 0.663, 0.161364
2023/07/06 03:02:48.122, True, 0.663, 0.160143
2023/07/06 03:02:48.618, True, 0.674, 0.162814
2023/07/06 03:02:49.121, True, 0.663, 0.163729
2023/07/06 03:02:49.626, True, 0.663, 0.161212
2023/07/06 03:02:50.122, True, 0.674, 0.162814
2023/07/06 03:02:50.626, True, 0.663, 0.160525
2023/07/06 03:02:51.130, True, 0.663, 0.163119
2023/07/06 03:02:51.626, True, 0.675, 0.161746
2023/07/06 03:02:52.130, True, 0.662, 0.162509
2023/07/06 03:02:52.634, True, 0.663, 0.160143
2023/07/06 03:02:53.129, True, 0.674, 0.160830
2023/07/06 03:02:53.634, True, 0.663, 0.161212
2023/07/06 03:02:54.138, True, 0.663, 0.161059
2023/07/06 03:02:54.634, True, 0.674, 0.162051
2023/07/06 03:02:55.138, True, 0.663, 0.163653
2023/07/06 03:02:55.642, True, 0.663, 0.161669
2023/07/06 03:02:56.146, True, 0.663, 0.160372
2023/07/06 03:02:56.642, True, 0.674, 0.163119
2023/07/06 03:02:57.146, True, 0.663, 0.160983
2023/07/06 03:02:57.650, True, 0.665, 0.161135
2023/07/06 03:02:58.146, True, 0.673, 0.162280
2023/07/06 03:02:58.650, True, 0.663, 0.162661
2023/07/06 03:02:59.154, True, 0.664, 0.161059
2023/07/06 03:02:59.650, True, 0.673, 0.162203
2023/07/06 03:03:00.154, True, 0.995, 0.162127
2023/07/06 03:03:00.658, True, 0.664, 0.161135
2023/07/06 03:03:01.154, True, 0.674, 0.162280
2023/07/06 03:03:01.658, True, 0.663, 0.162127
2023/07/06 03:03:02.162, True, 0.663, 0.161440
2023/07/06 03:03:02.658, True, 0.337, 0.163119
2023/07/06 03:03:03.162, True, 0.663, 0.160220
2023/07/06 03:03:03.666, True, 0.663, 0.163272
2023/07/06 03:03:04.162, True, 1.011, 0.161517
2023/07/06 03:03:04.666, True, 0.663, 0.163882
2023/07/06 03:03:05.170, True, 0.664, 0.160678
2023/07/06 03:03:05.666, True, 0.673, 0.161440
2023/07/06 03:03:06.170, True, 0.664, 0.163577
2023/07/06 03:03:06.673, True, 0.662, 0.160449
2023/07/06 03:03:07.170, True, 0.337, 0.162127
2023/07/06 03:03:07.674, True, 0.995, 0.162280
2023/07/06 03:03:08.178, True, 0.664, 0.160830
2023/07/06 03:03:08.674, True, 0.673, 0.162127
2023/07/06 03:03:09.178, True, 0.663, 0.160372
2023/07/06 03:03:09.682, True, 0.663, 0.161898
2023/07/06 03:03:10.186, True, 0.664, 0.162432
2023/07/06 03:03:10.682, True, 0.337, 0.162203
2023/07/06 03:03:11.186, True, 0.663, 0.162051
2023/07/06 03:03:11.689, True, 0.664, 0.161669
2023/07/06 03:03:12.186, True, 0.673, 0.161669
2023/07/06 03:03:12.690, True, 0.664, 0.162280
2023/07/06 03:03:13.194, True, 0.662, 0.162661
2023/07/06 03:03:13.690, True, 0.675, 0.159533
2023/07/06 03:03:14.194, True, 0.662, 0.162661
2023/07/06 03:03:14.698, True, 0.663, 0.162890
2023/07/06 03:03:15.202, True, 0.664, 0.161517
2023/07/06 03:03:15.698, True, 0.673, 0.163729
2023/07/06 03:03:16.202, True, 0.663, 0.159609
2023/07/06 03:03:16.706, True, 0.663, 0.161517
2023/07/06 03:03:17.201, True, 0.674, 0.158770
2023/07/06 03:03:17.706, True, 0.663, 0.162737
2023/07/06 03:03:18.210, True, 0.664, 0.164569
2023/07/06 03:03:18.706, True, 0.674, 0.162585
2023/07/06 03:03:19.210, True, 0.662, 0.161288
2023/07/06 03:03:19.714, True, 0.663, 0.161517
2023/07/06 03:03:20.210, True, 0.674, 0.162127
2023/07/06 03:03:20.714, True, 0.663, 0.162585
2023/07/06 03:03:21.218, True, 0.663, 0.159838
2023/07/06 03:03:21.722, True, 0.663, 0.159686
2023/07/06 03:03:22.218, True, 0.674, 0.160372
2023/07/06 03:03:22.722, True, 0.663, 0.161135
2023/07/06 03:03:23.226, True, 0.663, 0.161593
2023/07/06 03:03:23.722, True, 0.674, 0.163119
2023/07/06 03:03:24.226, True, 0.663, 0.162661
2023/07/06 03:03:24.730, True, 0.664, 0.162127
2023/07/06 03:03:25.225, True, 0.674, 0.160220
2023/07/06 03:03:25.730, True, 0.662, 0.161669
2023/07/06 03:03:26.234, True, 0.663, 0.160525
2023/07/06 03:03:26.730, True, 0.674, 0.161440
2023/07/06 03:03:27.234, True, 0.664, 0.161364
2023/07/06 03:03:27.738, True, 0.663, 0.161059
2023/07/06 03:03:28.234, True, 0.674, 0.161593
2023/07/06 03:03:28.738, True, 0.663, 0.161517
2023/07/06 03:03:29.242, True, 0.663, 0.161746
2023/07/06 03:03:29.738, True, 0.674, 0.161288
2023/07/06 03:03:30.242, True, 0.663, 0.162585
2023/07/06 03:03:30.746, True, 0.663, 0.159686
2023/07/06 03:03:31.242, True, 0.674, 0.160525
2023/07/06 03:03:31.745, True, 0.664, 0.159533
2023/07/06 03:03:32.250, True, 0.663, 0.161364
2023/07/06 03:03:32.754, True, 0.663, 0.162127
2023/07/06 03:03:33.250, True, 0.674, 0.163119
2023/07/06 03:03:33.754, True, 0.664, 0.159304
2023/07/06 03:03:34.258, True, 0.662, 0.160983
2023/07/06 03:03:34.754, True, 0.675, 0.161898
2023/07/06 03:03:35.258, True, 0.663, 0.162890
2023/07/06 03:03:35.762, True, 0.663, 0.161135
2023/07/06 03:03:36.258, True, 0.674, 0.160906
2023/07/06 03:03:36.762, True, 0.663, 0.163882
2023/07/06 03:03:37.266, True, 0.663, 0.161975
2023/07/06 03:03:37.762, True, 0.674, 0.161669
2023/07/06 03:03:38.266, True, 0.663, 0.162585
2023/07/06 03:03:38.770, True, 0.663, 0.162814
2023/07/06 03:03:39.266, True, 0.674, 0.160678
2023/07/06 03:03:39.770, True, 0.663, 0.162737
2023/07/06 03:03:40.274, True, 0.663, 0.160449
2023/07/06 03:03:40.770, True, 0.674, 0.160372
2023/07/06 03:03:41.274, True, 0.663, 0.162356
2023/07/06 03:03:41.778, True, 0.663, 0.162890
2023/07/06 03:03:42.282, True, 0.663, 0.162280
2023/07/06 03:03:42.778, True, 0.674, 0.161059
2023/07/06 03:03:43.282, True, 0.663, 0.161288
2023/07/06 03:03:43.785, True, 0.663, 0.160678
2023/07/06 03:03:44.282, True, 0.674, 0.160983
2023/07/06 03:03:44.786, True, 0.664, 0.161822
2023/07/06 03:03:45.290, True, 0.664, 0.161669
2023/07/06 03:03:45.785, True, 0.673, 0.161212
2023/07/06 03:03:46.290, True, 0.663, 0.159152
2023/07/06 03:03:46.794, True, 0.663, 0.159915
2023/07/06 03:03:47.290, True, 0.674, 0.162432
2023/07/06 03:03:47.794, True, 0.663, 0.161593
2023/07/06 03:03:48.298, True, 0.663, 0.159609
2023/07/06 03:03:48.793, True, 0.674, 0.159915
2023/07/06 03:03:49.298, True, 0.663, 0.163119
2023/07/06 03:03:49.802, True, 0.663, 0.159228
2023/07/06 03:03:50.305, True, 0.663, 0.160525
2023/07/06 03:03:50.801, True, 0.674, 0.160296
2023/07/06 03:03:51.306, True, 0.332, 0.159762
2023/07/06 03:03:51.802, True, 0.674, 0.159838
2023/07/06 03:03:52.306, True, 0.663, 0.160754
2023/07/06 03:03:52.810, True, 0.663, 0.163806
2023/07/06 03:03:53.305, True, 0.674, 0.162966
2023/07/06 03:03:53.810, True, 0.663, 0.161898
2023/07/06 03:03:54.314, True, 0.663, 0.162432
2023/07/06 03:03:54.810, True, 0.674, 0.158236
2023/07/06 03:03:55.314, True, 0.664, 0.162280
2023/07/06 03:03:55.818, True, 0.663, 0.161135
2023/07/06 03:03:56.314, True, 0.674, 0.162127
2023/07/06 03:03:56.818, True, 0.663, 0.159838
2023/07/06 03:03:57.322, True, 0.663, 0.160296
2023/07/06 03:03:57.818, True, 1.010, 0.160601
2023/07/06 03:03:58.322, True, 0.663, 0.161288
2023/07/06 03:03:58.826, True, 0.332, 0.162051
2023/07/06 03:03:59.322, True, 0.674, 0.159838
2023/07/06 03:03:59.826, True, 0.994, 0.161440
2023/07/06 03:04:00.330, True, 0.664, 0.160296
2023/07/06 03:04:00.826, True, 0.674, 0.163272
2023/07/06 03:04:01.330, True, 0.663, 0.163577
2023/07/06 03:04:01.834, True, 0.662, 0.162432
2023/07/06 03:04:02.330, True, 0.675, 0.161898
2023/07/06 03:04:02.834, True, 0.662, 0.161898
2023/07/06 03:04:03.338, True, 0.663, 0.158618
2023/07/06 03:04:03.834, True, 0.674, 0.159609
2023/07/06 03:04:04.337, True, 0.663, 0.160067
2023/07/06 03:04:04.842, True, 0.663, 0.162051
2023/07/06 03:04:05.338, True, 0.675, 0.159838
2023/07/06 03:04:05.842, True, 0.662, 0.160906
2023/07/06 03:04:06.346, True, 0.664, 0.161059
2023/07/06 03:04:06.842, True, 0.674, 0.160983
2023/07/06 03:04:07.346, True, 0.331, 0.158541
2023/07/06 03:04:07.850, True, 0.995, 0.160601
2023/07/06 03:04:08.346, True, 0.337, 0.159304
2023/07/06 03:04:08.850, True, 0.995, 0.161593
2023/07/06 03:04:09.354, True, 0.663, 0.161135
2023/07/06 03:04:09.849, True, 0.674, 0.159457
2023/07/06 03:04:10.354, True, 0.664, 0.163653
2023/07/06 03:04:10.858, True, 0.663, 0.160296